Date String (YYYY-MM-DD hh:mm:ss) UTC,Instrument flags,Ambient pressure (hPa),Sample flow (lpm),Bypass flow (lpm),Sample temperature (°C),Ambient temperature (°C),ASC tube jacket temperature (°C),LED temperature (°C),Box temperature (°C),Sample RH (%),Span deviation,Mass concentration (μg/m³),Mass concentration (μg/m³),Mass concentration (μg/m³)
DateTimeUTC,F1_M11,P_M11,Q1_M11,Q2_M11,T1_M11,T2_M11,T3_M11,T4_M11,T5_M11,U1_M11,ZSPAN_M11,X0_M11,X2_M11,X1_M11
2021-11-25 12:00:00,,0835.0,4.99,0.00,22.2,21.6,00.0,31.3,23.9,12.3,0000.0,0006.44,0004.25,0004.04
2021-11-25 12:01:00,,0835.0,5.01,0.00,22.2,21.6,00.0,31.3,23.9,12.4,0000.0,0006.30,0004.21,0004.01
2021-11-25 12:02:00,,0835.0,4.98,0.00,22.2,21.5,00.0,31.3,23.8,12.3,0000.0,0006.51,0004.19,0003.98
2021-11-25 12:03:00,,0835.0,5.00,0.00,22.2,21.5,00.0,31.3,23.9,12.1,0000.0,0005.87,0004.17,0003.97
2021-11-25 12:04:00,,0835.0,5.00,0.00,22.1,21.5,00.0,31.2,23.8,12.0,0000.0,0005.39,0004.15,0003.96
2021-11-25 12:05:00,,0835.0,5.00,0.00,22.1,21.4,00.0,31.2,23.8,12.0,0000.0,0005.51,0004.16,0003.95
2021-11-25 12:06:00,,0835.1,5.00,0.00,22.1,21.4,00.0,31.2,23.7,12.0,0000.0,0005.63,0004.18,0003.94
2021-11-25 12:07:00,,0835.0,5.01,0.00,22.1,21.3,00.0,31.2,23.8,11.9,0000.0,0005.59,0004.15,0003.91
2021-11-25 12:08:00,,0835.0,4.99,0.00,22.0,21.3,00.0,31.2,23.7,11.9,0000.0,0005.62,0004.12,0003.88
2021-11-25 12:09:00,,0835.1,5.01,0.00,22.1,21.7,00.0,31.2,23.8,11.9,0000.0,0005.57,0004.08,0003.83
2021-11-25 12:10:00,,0835.1,4.99,0.00,22.2,22.4,00.0,31.2,24.0,11.9,0000.0,0005.45,0004.04,0003.79
2021-11-25 12:11:00,,0835.2,5.02,0.00,22.3,23.1,00.0,31.2,24.2,11.8,0000.0,0005.40,0004.00,0003.74
2021-11-25 12:12:00,,0835.2,4.99,0.00,22.4,23.0,00.0,31.3,24.3,11.8,0000.0,0005.24,0003.94,0003.69
2021-11-25 12:13:00,,0835.2,5.01,0.00,22.4,22.8,00.0,31.3,24.3,11.8,0000.0,0004.98,0003.91,0003.66
2021-11-25 12:14:00,,0835.1,4.98,0.00,22.4,22.6,00.0,31.3,24.3,11.9,0000.0,0005.11,0003.94,0003.69
2021-11-25 12:15:00,,0835.2,5.00,0.00,22.4,22.3,00.0,31.3,24.2,12.0,0000.0,0005.23,0004.00,0003.74
2021-11-25 12:16:00,,0835.2,5.00,0.00,22.4,22.1,00.0,31.3,24.1,12.0,0000.0,0005.24,0004.03,0003.79
2021-11-25 12:17:00,,0835.2,4.99,0.00,22.3,21.9,00.0,31.3,24.0,12.0,0000.0,0005.26,0004.06,0003.84
2021-11-25 12:18:00,,0835.2,5.00,0.00,22.3,21.7,00.0,31.3,23.9,12.0,0000.0,0005.32,0004.09,0003.86
2021-11-25 12:19:00,,0835.2,5.00,0.00,22.2,21.6,00.0,31.3,23.8,12.0,0000.0,0005.31,0004.11,0003.89
2021-11-25 12:20:00,,0835.2,5.00,0.00,22.2,21.5,00.0,31.3,23.8,12.2,0000.0,0005.46,0004.18,0003.95
2021-11-25 12:21:00,,0835.2,5.01,0.00,22.1,21.4,00.0,31.2,23.7,12.2,0000.0,0005.64,0004.19,0003.97
2021-11-25 12:22:00,,0835.1,5.01,0.00,22.0,21.2,00.0,31.2,23.6,12.2,0000.0,0005.69,0004.23,0004.00
2021-11-25 12:23:00,,0835.1,4.99,0.00,22.0,21.2,00.0,31.2,23.6,12.2,0000.0,0006.05,0004.25,0004.01
2021-11-25 12:24:00,,0835.1,5.01,0.00,22.0,21.1,00.0,31.2,23.6,12.2,0000.0,0007.48,0004.27,0004.01
2021-11-25 12:25:00,,0835.1,5.01,0.00,21.9,21.2,00.0,31.2,23.6,12.2,0000.0,0007.39,0004.23,0003.99
2021-11-25 12:26:00,,0835.1,5.01,0.00,22.0,21.9,00.0,31.2,23.8,12.0,0000.0,0007.31,0004.18,0003.95
2021-11-25 12:27:00,,0835.1,4.99,0.00,22.1,22.7,00.0,31.2,24.0,11.9,0000.0,0007.19,0004.11,0003.88
2021-11-25 12:28:00,,0835.1,5.00,0.00,22.3,23.0,00.0,31.2,24.2,11.9,0000.0,0006.96,0004.05,0003.84
2021-11-25 12:29:00,,0835.0,5.00,0.00,22.3,22.8,00.0,31.2,24.2,11.8,0000.0,0006.87,0004.03,0003.82
2021-11-25 12:30:00,,0835.0,4.99,0.00,22.3,22.6,00.0,31.2,24.1,11.9,0000.0,0006.87,0004.02,0003.82
2021-11-25 12:31:00,,0835.0,5.02,0.00,22.3,22.3,00.0,31.3,24.1,11.8,0000.0,0006.66,0003.97,0003.77
2021-11-25 12:32:00,,0835.1,5.00,0.00,22.3,22.2,00.0,31.3,24.0,11.8,0000.0,0006.43,0003.93,0003.75
2021-11-25 12:33:00,,0835.0,4.99,0.00,22.3,22.0,00.0,31.3,24.0,11.6,0000.0,0006.39,0003.87,0003.70
2021-11-25 12:34:00,,0835.1,5.01,0.00,22.3,21.9,00.0,31.3,24.0,11.5,0000.0,0006.20,0003.78,0003.62
2021-11-25 12:35:00,,0835.1,4.99,0.00,22.3,21.8,00.0,31.3,24.0,11.6,0000.0,0004.74,0003.75,0003.60
2021-11-25 12:36:00,,0835.1,5.01,0.00,22.2,21.6,00.0,31.2,23.9,11.6,0000.0,0004.41,0003.73,0003.57
2021-11-25 12:37:00,,0835.0,5.00,0.00,22.1,21.5,00.0,31.2,23.7,11.7,0000.0,0004.38,0003.71,0003.55
2021-11-25 12:38:00,,0835.0,4.99,0.00,22.0,21.3,00.0,31.2,23.6,11.8,0000.0,0004.53,0003.76,0003.58
2021-11-25 12:39:00,,0835.0,5.00,0.00,22.0,21.2,00.0,31.2,23.5,11.9,0000.0,0004.65,0003.79,0003.59
2021-11-25 12:40:00,,0835.0,5.01,0.00,21.9,21.0,00.0,31.1,23.4,12.0,0000.0,0004.77,0003.80,0003.58
2021-11-25 12:41:00,,0835.0,4.99,0.00,21.9,21.4,00.0,31.1,23.5,12.1,0000.0,0004.75,0003.80,0003.59
2021-11-25 12:42:00,,0835.0,5.01,0.00,22.0,22.2,00.0,31.2,23.7,12.1,0000.0,0005.68,0003.84,0003.61
2021-11-25 12:43:00,,0835.0,4.99,0.00,22.1,22.9,00.0,31.2,24.0,12.0,0000.0,0005.87,0003.87,0003.64
2021-11-25 12:44:00,,0835.0,5.00,0.00,22.2,22.7,00.0,31.2,24.0,12.0,0000.0,0005.81,0003.90,0003.68
2021-11-25 12:45:00,,0835.0,5.01,0.00,22.2,22.4,00.0,31.2,23.9,12.0,0000.0,0005.97,0003.99,0003.77
2021-11-25 12:46:00,,0835.0,4.99,0.00,22.1,22.1,00.0,31.2,23.8,12.1,0000.0,0006.10,0004.06,0003.83
2021-11-25 12:47:00,,0834.9,5.01,0.00,22.1,21.9,00.0,31.2,23.7,12.2,0000.0,0006.26,0004.12,0003.89
2021-11-25 12:48:00,,0835.0,4.99,0.00,22.0,21.6,00.0,31.1,23.6,12.2,0000.0,0006.34,0004.18,0003.95
2021-11-25 12:49:00,,0835.0,5.01,0.00,22.0,21.5,00.0,31.1,23.5,12.3,0000.0,0006.35,0004.20,0003.99
2021-11-25 12:50:00,,0834.9,4.99,0.00,21.9,21.4,00.0,31.1,23.5,12.3,0000.0,0006.51,0004.25,0004.03
2021-11-25 12:51:00,,0834.8,5.01,0.00,21.9,21.2,00.0,31.1,23.4,12.4,0000.0,0006.62,0004.31,0004.09
2021-11-25 12:52:00,,0834.8,5.00,0.00,21.8,21.1,00.0,31.1,23.4,12.5,0000.0,0006.88,0004.38,0004.13
2021-11-25 12:53:00,,0834.8,5.00,0.00,21.8,21.1,00.0,31.0,23.3,12.5,0000.0,0006.45,0004.44,0004.18
2021-11-25 12:54:00,,0834.8,5.00,0.00,21.7,21.0,00.0,31.0,23.3,12.6,0000.0,0006.24,0004.49,0004.24
2021-11-25 12:55:00,,0834.8,5.01,0.00,21.7,21.1,00.0,31.0,23.3,12.7,0000.0,0006.47,0004.58,0004.30
2021-11-25 12:56:00,,0834.8,5.00,0.00,21.8,21.8,00.0,31.0,23.5,12.7,0000.0,0006.59,0004.64,0004.36
2021-11-25 12:57:00,,0834.8,5.00,0.00,21.9,22.6,00.0,31.0,23.8,12.6,0000.0,0007.08,0004.69,0004.40
2021-11-25 12:58:00,,0834.7,5.00,0.00,22.0,22.8,00.0,31.0,23.9,12.6,0000.0,0007.29,0004.73,0004.44
2021-11-25 12:59:00,,0834.7,4.99,0.00,22.0,22.4,00.0,31.0,23.8,12.6,0000.0,0007.56,0004.82,0004.48
